User: anonymous   Login
Location: Diebersbach
(48.5163°N, 8.0558°E)
Time: 16:51:50
(UTC+00:00)
Language:

FALCON 9 DEB - Orbit

View from above orbital plane
View from above orbital plane
View from above satellite
View from above satellite

Ground track
Ground track

The orbit data is extracted from the following two-line orbital elements,

1 46087U 20055BN  21269.94838488  .00034509  00000-0  28386-3 0  9990
2 46087  53.0050  54.2016 0009136 202.9664 157.0945 15.70052302 69625
Epoch (UTC): 26 September 2021 22:45:40
Eccentricity: 0.0009136
inclination: 53.0050°
perigee height: 352 km
apogee height: 365 km
right ascension of ascending node: 54.2016°
argument of perigee: 202.9664°
revolutions per day: 15.70052302
mean anomaly at epoch: 157.0945°
orbit number at epoch: 6962

The dashed part of the orbit path shows where the satellite is in the earth's shadow,  

DLR